Mobile, AL

10:20 PM CDT on September 27, 2016 (GMT -0500)
Mobile Downtown

Weather History for KBFM - September, 2013

Change the Weather History Date:

Sunday, September 22, 2013

  Actual Average Record
Temperature  
Mean Temperature 76 °F -  
Max Temperature 82 °F 83 °F 93 °F (1997)
Min Temperature 71 °F 66 °F 55 °F (1999)
Cooling Degree Days 11    
Growing Degree Days 26 (Base 50)    
Moisture  
Dew Point 67 °F    
Average Humidity 81    
Maximum Humidity 94    
Minimum Humidity 65    
Precipitation  
Precipitation 0.04 in - - ()
Sea Level Pressure  
Sea Level Pressure 29.79 in    
Wind  
Wind Speed 9 mph (North)    
Max Wind Speed 17 mph    
Max Gust Speed 23 mph    
Visibility 10 miles    
Events Rain    
Averages and records for this station are not official NWS values.
T = Trace of Precipitation, MM = Missing Value Source: NWS Daily Summary

Daily Weather History Graph

Daily Weather History Graph

Search for Another Location

Airport or City:

Trip Planner

Search our weather history database for the weather conditions in past years. The results will help you decide how hot, cold, wet, or windy it might be!

Date:

Astronomy

Sep. 22, 2013 Rise Set
Actual Time 6:40 AM CDT 6:48 PM CDT
Civil Twilight 6:16 AM CDT 7:12 PM CDT
Nautical Twilight 5:48 AM CDT 7:40 PM CDT
Astronomical Twilight 5:20 AM CDT 8:08 PM CDT
Moon 8:55 PM CDT (9/22) 9:44 AM CDT (9/22)
Length of Visible Light 12h 55m
Length of Day
12h 07m
Waning Gibbous, 88% of the Moon is Illuminated
Sep 22
Waning Gibbous
Sep 26
Last Quarter
Oct 4
New
Oct 11
First Quarter
Oct 18
Full

Hourly Weather History & Observations

Time (CDT) Temp. Heat Index Dew Point Humidity Pressure Visibility Wind Dir Wind Speed Gust Speed Precip Events Conditions
12:45 AM 71.6 °F - 69.8 °F 94% 29.80 in 10.0 mi North 5.8 mph - 0.00 in Rain Light Rain
12:49 AM 71.6 °F - 69.8 °F 94% 29.80 in 10.0 mi North 8.1 mph - 0.00 in   Overcast
12:53 AM 72.0 °F - 70.0 °F 93% 29.80 in 10.0 mi North 5.8 mph - 0.00 in   Overcast
1:43 AM 71.6 °F - 69.8 °F 94% 29.78 in 10.0 mi North 10.4 mph - 0.00 in Rain Light Rain
1:53 AM 71.1 °F - 69.1 °F 93% 29.78 in 10.0 mi North 6.9 mph - 0.00 in   Overcast
2:02 AM 71.6 °F - 69.8 °F 94% 29.78 in 10.0 mi North 6.9 mph - N/A   Overcast
2:53 AM 71.1 °F - 68.0 °F 90% 29.77 in 6.0 mi North 8.1 mph - 0.02 in Rain Rain
3:53 AM 71.1 °F - 68.0 °F 90% 29.77 in 10.0 mi North 8.1 mph - 0.01 in   Overcast
4:53 AM 71.1 °F - 68.0 °F 90% 29.76 in 10.0 mi NNE 9.2 mph - 0.01 in   Scattered Clouds
5:02 AM 71.6 °F - 68.0 °F 88% 29.76 in 10.0 mi NNE 9.2 mph - N/A   Mostly Cloudy
5:22 AM 71.6 °F - 68.0 °F 88% 29.77 in 10.0 mi NNE 9.2 mph 16.1 mph N/A   Mostly Cloudy
5:31 AM 71.6 °F - 68.0 °F 88% 29.76 in 10.0 mi North 11.5 mph - N/A   Overcast
5:53 AM 71.1 °F - 68.0 °F 90% 29.78 in 10.0 mi NNE 10.4 mph - N/A   Mostly Cloudy
6:29 AM 71.6 °F - 66.2 °F 83% 29.77 in 10.0 mi NNE 11.5 mph - N/A   Overcast
6:36 AM 71.6 °F - 66.2 °F 83% 29.77 in 10.0 mi NE 10.4 mph - N/A   Overcast
6:46 AM 71.6 °F - 66.2 °F 83% 29.77 in 10.0 mi NE 12.7 mph - N/A   Mostly Cloudy
6:53 AM 71.1 °F - 66.9 °F 87% 29.77 in 10.0 mi NNE 17.3 mph 23.0 mph N/A   Overcast
7:53 AM 71.1 °F - 66.0 °F 84% 29.80 in 10.0 mi NNE 13.8 mph 19.6 mph N/A   Mostly Cloudy
8:53 AM 71.1 °F - 66.0 °F 84% 29.81 in 10.0 mi NNE 9.2 mph - N/A   Overcast
9:53 AM 72.0 °F - 66.0 °F 81% 29.82 in 10.0 mi NNE 10.4 mph - N/A   Overcast
10:53 AM 75.0 °F - 66.9 °F 76% 29.82 in 10.0 mi North 9.2 mph - N/A   Mostly Cloudy
11:53 AM 77.0 °F - 68.0 °F 74% 29.83 in 10.0 mi North 6.9 mph - N/A   Scattered Clouds
12:53 PM 81.0 °F 83.8 °F 68.0 °F 65% 29.81 in 10.0 mi NE 9.2 mph - N/A   Scattered Clouds
1:53 PM 81.0 °F 83.8 °F 68.0 °F 65% 29.79 in 10.0 mi NNE 8.1 mph - N/A   Scattered Clouds
2:53 PM 81.0 °F 83.8 °F 68.0 °F 65% 29.77 in 10.0 mi NE 8.1 mph - N/A   Overcast
3:53 PM 80.1 °F 82.7 °F 68.0 °F 67% 29.77 in 10.0 mi North 9.2 mph - N/A   Mostly Cloudy
4:53 PM 79.0 °F - 68.0 °F 69% 29.77 in 10.0 mi North 9.2 mph - N/A   Overcast
5:53 PM 77.0 °F - 66.9 °F 71% 29.78 in 10.0 mi North 10.4 mph - N/A   Scattered Clouds
6:53 PM 75.9 °F - 66.0 °F 71% 29.80 in 10.0 mi North 8.1 mph - N/A   Mostly Cloudy
7:53 PM 75.0 °F - 64.9 °F 71% 29.81 in 10.0 mi North 8.1 mph - N/A   Overcast
8:53 PM 73.9 °F - 64.9 °F 73% 29.83 in 10.0 mi North 8.1 mph - N/A   Overcast
9:53 PM 73.9 °F - 64.9 °F 73% 29.81 in 10.0 mi North 8.1 mph - N/A   Clear
10:53 PM 73.9 °F - 64.0 °F 71% 29.82 in 10.0 mi North 8.1 mph - N/A   Overcast
11:53 PM 73.9 °F - 64.9 °F 73% 29.82 in 10.0 mi North 8.1 mph - N/A   Partly Cloudy